Home   Weather   Kielce   Past weeks

Flag for Poland Past Weather in Kielce, Poland — Yesterday and Last 2 Weeks

Now
56 °F

Passing clouds.


Feels Like: 56 °F
Forecast: 58 / 72 °F
Wind: 1 mph from South

Location: Kielce

Current Time: Sep 30, 2016 at 12:19:52 AM

Latest Report: Sep 29, 2016 at 11:00 PM


Visibility: 13 mi

Pressure: 30.01 "Hg

Humidity: 76%

Dew Point: 49 °F

Location of KielceLocation

Past Weather in Kielce — Graph

°F

Kielce Temperature Yesterday

Maximum temperature yesterday: 74 °F (at 4:00 PM)
Minimum temperature yesterday: 56 °F (at 11:00 PM)
Average temperature yesterday: 64 °F

High & Low Weather Summary for the Past Weeks

 TemperatureHumidityPressure
High79 °F (Sep 16, 4:00 PM)100% (Sep 22, 6:00 AM)30.41 "Hg (Sep 22, 6:00 AM)
Low32 °F (Sep 28, 6:00 AM)39% (Sep 15, 3:00 PM)29.85 "Hg (Sep 17, 3:00 PM)
Average54 °F77%30.12 "Hg
* Reported Sep 14 11:00 PM — Sep 29 11:00 PM, Kielce, Weather by CustomWeather, © 2016

Note: Actual official high and low records may vary slightly from our data, if they occured in-between our weather recording intervals... More about our weather records

Advertising

Kielce Weather History for the Previous 24 Hours

Scroll right to see more
 ConditionsComfort  
Time TempWeatherWind HumidityBarometerVisibility
11:00 PM
Thu, Sep 29
56 °FPassing clouds.1 mph76%30.01 "Hg12 mi
10:00 PM61 °FOvercast.2 mph62%30.01 "Hg19 mi
9:00 PM64 °FOvercast.3 mph59%30.01 "Hg19 mi
8:00 PM62 °FOvercast.2 mph69%30.03 "Hg16 mi
7:00 PM65 °FOvercast.3 mph66%30.02 "Hg12 mi
6:00 PM68 °FOvercast.3 mph59%30.03 "Hg12 mi
5:00 PM71 °FOvercast.6 mph52%30.02 "Hg19 mi
4:00 PM74 °FOvercast.5 mph44%30.03 "Hg22 mi
3:00 PM73 °FOvercast.5 mph50%30.04 "Hg22 mi
2:00 PM73 °FOvercast.5 mph49%30.06 "Hg19 mi
1:00 PM72 °FOvercast.5 mph52%30.08 "Hg19 mi
11:00 AM67 °FOvercast.3 mph60%30.13 "Hg18 mi
9:00 AM62 °FOvercast.5 mph73%30.14 "Hg19 mi
8:00 AM59 °FOvercast.2 mph77%30.15 "Hg16 mi
7:00 AM57 °FOvercast.3 mph81%30.14 "Hg19 mi
6:00 AM58 °FOvercast.3 mph80%30.13 "Hg17 mi
5:00 AM58 °FOvercast.3 mph77%30.13 "Hg17 mi
4:00 AM60 °FOvercast.3 mph75%30.13 "Hg14 mi
3:00 AM60 °FOvercast.3 mph74%30.14 "Hg15 mi
2:00 AM61 °FOvercast.3 mph73%30.14 "Hg11 mi
1:00 AM61 °FOvercast.3 mph73%30.14 "Hg9 mi
12:00 AM61 °FOvercast.3 mph72%30.13 "Hg9 mi
Weather by CustomWeather, © 2016

See weather overviewHow to use our weather pages